Погода в Мацковцах

Украина / Полтавская область     49°53′34″N   32°57′29″E
темп.,
°C
ветер,
м/с
пор.,
м/с
влажн.,
%
обл.,
%
осадки,
мм/ч
давл.,
гПа
погр.,
м
18 мая, ср
ср1800:00+7ссз34727 0.0 101257
03:00+5ссз357299 0.0 101385
06:00+4ссз497931 0.0 1013243
09:00+9ссз67695 0.0 1014727
12:00+12с786043 0.5 10141674
15:00+10ссз7976100 1.3 10161069
18:00+11с697775 0.7 10161178
21:00+8ссз5129282 1.4 1018371
19 мая, чт
чт1900:00+7ссз7159021 0.0 1020469
03:00+6ссз5139311 0.0 1021302
06:00+5ссз511928 0.0 1022271
09:00+11ссз58710 0.0 1023580
12:00+16ссз68535 0.0 10221602
15:00+17сз78495 0.0 10211876
18:00+16ссз595587 0.0 10211529
21:00+12зсз3672100 0.0 1021105
20 мая, пт
пт2000:00+9сз48725 0.0 1022130
03:00+7сз35715 0.0 102266
06:00+8зсз34795 0.0 102277
09:00+14зсз4665100 0.0 1022470
12:00+17з5557100 0.0 1020995
15:00+17зсз4764100 0.0 1019973
18:00+13вюв2287100 1.0 1017103
21:00+12ю41091100 1.0 1015171
21 мая, сб
сб2100:00+12юз5139179 0.0 1010254
03:00+13зюз61489100 0.1 1007426
06:00+13з61395100 0.0 1006662
09:00+13зсз81290100 0.3 1006895
12:00+10с81287100 0.2 1008922
15:00+12ссв7972100 0.3 10121165
18:00+12св5765100 0.0 10131302
21:00+9всв2279100 0.0 101414
22 мая, вс
вс2200:00+7ююв3385100 0.0 101349
03:00+7ююв3679100 0.0 1013160
06:00+7юв3884100 0.1 1011357
09:00+8юв5885100 0.3 1011752
12:00+7юв5890100 0.9 1011798
15:00+7юв4890100 1.1 1010520
18:00+7в2491100 0.1 1011336
21:00+7всв229299 0.2 101260